| time (UTC) | temp F | wind direction | speed MPH | gust MPH | rain 1hr in | rain 24hr in | rain mn in | humidity % | barometer mb |
| 20260905172847 | 69 | 41 | 1.0 | 4.0 | 0.00 | 0.00 | 0.00 | 75 | 1025.3 |
| 20260905172643 | 69 | 46 | 1.0 | 7.0 | 0.00 | 0.00 | 0.00 | 75 | 1025.3 |
| 20260905172433 | 69 | 70 | 1.0 | 7.0 | 0.00 | 0.00 | 0.00 | 75 | 1025.4 |
| 20260905171915 | 70 | 85 | 2.0 | 7.0 | 0.00 | 0.00 | 0.00 | 74 | 1025.4 |
| 20260905171711 | 70 | 44 | 2.0 | 7.0 | 0.00 | 0.00 | 0.00 | 74 | 1025.3 |
| 20260905171507 | 70 | 56 | 2.0 | 7.0 | 0.00 | 0.00 | 0.00 | 73 | 1025.4 |
| 20260905171302 | 70 | 53 | 2.0 | 7.0 | 0.00 | 0.00 | 0.00 | 73 | 1025.3 |
| 20260905171057 | 70 | 46 | 2.0 | 7.0 | 0.00 | 0.00 | 0.00 | 72 | 1025.3 |
| 20260905170858 | 70 | 47 | 2.0 | 7.0 | 0.00 | 0.00 | 0.00 | 72 | 1025.3 |
| 20260905170658 | 70 | 72 | 2.0 | 6.0 | 0.00 | 0.00 | 0.00 | 72 | 1025.3 |
| 20260905165809 | 71 | 48 | 0.0 | 4.0 | 0.00 | 0.00 | 0.00 | 71 | 1025.2 |
| 20260905165600 | 71 | 53 | 0.0 | 4.0 | 0.00 | 0.00 | 0.00 | 71 | 1025.1 |
| 20260905165355 | 71 | 32 | 0.0 | 4.0 | 0.00 | 0.00 | 0.00 | 71 | 1025.2 |
| 20260905165155 | 71 | 31 | 1.0 | 4.0 | 0.00 | 0.00 | 0.00 | 71 | 1025.2 |
| 20260905164949 | 71 | 55 | 1.0 | 4.0 | 0.00 | 0.00 | 0.00 | 71 | 1025.2 |
| 20260905164739 | 71 | 45 | 1.0 | 4.0 | 0.00 | 0.00 | 0.00 | 70 | 1025.2 |
| 20260905164533 | 71 | 49 | 1.0 | 4.0 | 0.00 | 0.00 | 0.00 | 70 | 1025.2 |
| 20260905164325 | 71 | 71 | 0.0 | 4.0 | 0.00 | 0.00 | 0.00 | 70 | 1025.2 |
| 20260905164118 | 71 | 46 | 0.0 | 4.0 | 0.00 | 0.00 | 0.00 | 70 | 1025.2 |
| 20260905163914 | 71 | 46 | 0.0 | 2.0 | 0.00 | 0.00 | 0.00 | 70 | 1025.1 |
| 20260905163712 | 71 | 77 | 0.0 | 1.0 | 0.00 | 0.00 | 0.00 | 70 | 1025.2 |
| 20260905163507 | 71 | 74 | 0.0 | 1.0 | 0.00 | 0.00 | 0.00 | 70 | 1025.1 |
| 20260905162935 | 71 | 78 | 0.0 | 3.0 | 0.00 | 0.00 | 0.00 | 69 | 1025.1 |
| 20260905162733 | 71 | 84 | 0.0 | 3.0 | 0.00 | 0.00 | 0.00 | 69 | 1025.1 |
| 20260905162526 | 71 | 75 | 0.0 | 3.0 | 0.00 | 0.00 | 0.00 | 70 | 1025.1 |
| 20260905162320 | 71 | 77 | 0.0 | 3.0 | 0.00 | 0.00 | 0.00 | 70 | 1025.1 |
| 20260905162119 | 71 | 77 | 0.0 | 3.0 | 0.00 | 0.00 | 0.00 | 70 | 1025.1 |
| 20260905161554 | 71 | 58 | 0.0 | 3.0 | 0.00 | 0.00 | 0.00 | 69 | 1025.0 |
| 20260905161033 | 71 | 69 | 0.0 | 4.0 | 0.00 | 0.00 | 0.00 | 70 | 1025.0 |
| 20260905160828 | 72 | 65 | 1.0 | 4.0 | 0.00 | 0.00 | 0.00 | 69 | 1024.9 |
| 20260905160254 | 72 | 84 | 1.0 | 6.0 | 0.00 | 0.00 | 0.00 | 69 | 1025.0 |
| 20260905160055 | 72 | 73 | 1.0 | 6.0 | 0.00 | 0.00 | 0.00 | 69 | 1024.9 |
| 20260905155852 | 72 | 102 | 1.0 | 6.0 | 0.00 | 0.00 | 0.00 | 69 | 1025.0 |
| 20260905155325 | 72 | 81 | 2.0 | 6.0 | 0.00 | 0.00 | 0.00 | 69 | 1024.9 |
| 20260905155125 | 72 | 60 | 2.0 | 6.0 | 0.00 | 0.00 | 0.00 | 69 | 1025.0 |
| 20260905154922 | 72 | 42 | 2.0 | 6.0 | 0.00 | 0.00 | 0.00 | 69 | 1024.9 |
| 20260905154713 | 72 | 31 | 1.0 | 6.0 | 0.00 | 0.00 | 0.00 | 68 | 1024.9 |
| 20260905154504 | 73 | 55 | 1.0 | 6.0 | 0.00 | 0.00 | 0.00 | 68 | 1025.0 |
| 20260905153942 | 73 | 82 | 0.0 | 4.0 | 0.00 | 0.00 | 0.00 | 66 | 1025.1 |
| 20260905153743 | 73 | 193 | 0.0 | 3.0 | 0.00 | 0.00 | 0.00 | 64 | 1025.0 |
| 20260905153532 | 73 | 272 | 0.0 | 1.0 | 0.00 | 0.00 | 0.00 | 65 | 1025.0 |
| 20260905153324 | 73 | 246 | 0.0 | 1.0 | 0.00 | 0.00 | 0.00 | 64 | 1025.0 |
| 20260905153121 | 73 | 268 | 0.0 | 6.0 | 0.00 | 0.00 | 0.00 | 65 | 1025.0 |
| 20260905152913 | 73 | 269 | 1.0 | 6.0 | 0.00 | 0.00 | 0.00 | 65 | 1025.0 |
| 20260905152707 | 73 | 285 | 2.0 | 6.0 | 0.00 | 0.00 | 0.00 | 64 | 1024.9 |
| 20260905152458 | 73 | 278 | 2.0 | 6.0 | 0.00 | 0.00 | 0.00 | 65 | 1024.9 |
| 20260905151925 | 73 | 290 | 1.0 | 6.0 | 0.00 | 0.00 | 0.00 | 64 | 1025.0 |
| 20260905151717 | 73 | 291 | 0.0 | 5.0 | 0.00 | 0.00 | 0.00 | 64 | 1025.0 |
| 20260905151517 | 73 | 261 | 0.0 | 3.0 | 0.00 | 0.00 | 0.00 | 66 | 1025.0 |
| 20260905151314 | 73 | 257 | 0.0 | 3.0 | 0.00 | 0.00 | 0.00 | 67 | 1025.0 |
| 20260905151105 | 73 | 285 | 0.0 | 4.0 | 0.00 | 0.00 | 0.00 | 65 | 1025.0 |
| 20260905150540 | 73 | 295 | 1.0 | 4.0 | 0.00 | 0.00 | 0.00 | 67 | 1025.0 |
| 20260905150334 | 73 | 288 | 1.0 | 4.0 | 0.00 | 0.00 | 0.00 | 65 | 1025.0 |
| 20260905150128 | 73 | 270 | 1.0 | 5.0 | 0.00 | 0.00 | 0.00 | 65 | 1025.0 |
| 20260905145604 | 73 | 283 | 0.0 | 5.0 | 0.00 | 0.00 | 0.00 | 65 | 1025.0 |
| 20260905145359 | 73 | 274 | 1.0 | 5.0 | 0.00 | 0.00 | 0.00 | 65 | 1025.0 |
| 20260905145154 | 73 | 264 | 1.0 | 5.0 | 0.00 | 0.00 | 0.00 | 65 | 1024.9 |
| 20260905144315 | 73 | 267 | 1.0 | 5.0 | 0.00 | 0.00 | 0.00 | 65 | 1025.0 |
| 20260905144105 | 73 | 269 | 1.0 | 6.0 | 0.00 | 0.00 | 0.00 | 65 | 1025.1 |
| 20260905143856 | 74 | 278 | 1.0 | 6.0 | 0.00 | 0.00 | 0.00 | 65 | 1025.0 |
| 20260905143334 | 74 | 245 | 1.0 | 6.0 | 0.00 | 0.00 | 0.00 | 63 | 1025.0 |
| 20260905143132 | 74 | 280 | 1.0 | 6.0 | 0.00 | 0.00 | 0.00 | 64 | 1025.1 |
| 20260905142558 | 74 | 260 | 2.0 | 8.0 | 0.00 | 0.00 | 0.00 | 63 | 1025.1 |
| 20260905142356 | 74 | 226 | 2.0 | 8.0 | 0.00 | 0.00 | 0.00 | 62 | 1025.1 |
| 20260905141520 | 75 | 272 | 2.0 | 9.0 | 0.00 | 0.00 | 0.00 | 62 | 1025.0 |
| 20260905141317 | 75 | 233 | 2.0 | 9.0 | 0.00 | 0.00 | 0.00 | 60 | 1025.0 |
| 20260905141107 | 75 | 326 | 3.0 | 9.0 | 0.00 | 0.00 | 0.00 | 60 | 1025.0 |
| 20260905140907 | 75 | 250 | 3.0 | 9.0 | 0.00 | 0.00 | 0.00 | 62 | 1025.0 |
| 20260905140657 | 75 | 330 | 3.0 | 9.0 | 0.00 | 0.00 | 0.00 | 61 | 1025.0 |
| 20260905140454 | 75 | 299 | 2.0 | 9.0 | 0.00 | 0.00 | 0.00 | 63 | 1025.0 |
| 20260905135606 | 74 | 296 | 2.0 | 9.0 | 0.00 | 0.00 | 0.00 | 63 | 1025.0 |
| 20260905135403 | 74 | 280 | 2.0 | 9.0 | 0.00 | 0.00 | 0.00 | 64 | 1025.0 |
| 20260905135201 | 74 | 237 | 2.0 | 9.0 | 0.00 | 0.00 | 0.00 | 62 | 1025.1 |
| 20260905134953 | 74 | 297 | 1.0 | 9.0 | 0.00 | 0.00 | 0.00 | 62 | 1025.1 |
| 20260905134748 | 74 | 290 | 1.0 | 6.0 | 0.00 | 0.00 | 0.00 | 63 | 1025.0 |
| 20260905134539 | 74 | 294 | 1.0 | 7.0 | 0.00 | 0.00 | 0.00 | 62 | 1025.0 |
| 20260905134334 | 74 | 271 | 1.0 | 7.0 | 0.00 | 0.00 | 0.00 | 61 | 1025.0 |
| 20260905134125 | 74 | 287 | 1.0 | 7.0 | 0.00 | 0.00 | 0.00 | 63 | 1025.0 |
| 20260905133917 | 74 | 221 | 2.0 | 7.0 | 0.00 | 0.00 | 0.00 | 64 | 1025.0 |
| 20260905133716 | 74 | 298 | 2.0 | 7.0 | 0.00 | 0.00 | 0.00 | 62 | 1025.0 |
| 20260905133516 | 74 | 302 | 3.0 | 7.0 | 0.00 | 0.00 | 0.00 | 62 | 1025.0 |
| 20260905132949 | 74 | 288 | 2.0 | 7.0 | 0.00 | 0.00 | 0.00 | 61 | 1024.9 |
| 20260905132741 | 74 | 295 | 2.0 | 5.0 | 0.00 | 0.00 | 0.00 | 61 | 1025.0 |
| 20260905132535 | 74 | 288 | 2.0 | 5.0 | 0.00 | 0.00 | 0.00 | 61 | 1025.0 |
| 20260905132334 | 74 | 281 | 2.0 | 8.0 | 0.00 | 0.00 | 0.00 | 62 | 1025.1 |
| 20260905132125 | 74 | 290 | 2.0 | 8.0 | 0.00 | 0.00 | 0.00 | 61 | 1025.0 |
| 20260905131922 | 75 | 302 | 1.0 | 8.0 | 0.00 | 0.00 | 0.00 | 60 | 1025.0 |
| 20260905131713 | 75 | 293 | 1.0 | 8.0 | 0.00 | 0.00 | 0.00 | 61 | 1025.0 |
| 20260905131513 | 75 | 304 | 1.0 | 8.0 | 0.00 | 0.00 | 0.00 | 63 | 1025.0 |
| 20260905131304 | 75 | 266 | 1.0 | 8.0 | 0.00 | 0.00 | 0.00 | 62 | 1025.0 |
| 20260905131100 | 74 | 279 | 2.0 | 8.0 | 0.00 | 0.00 | 0.00 | 63 | 1025.0 |
| 20260905130859 | 74 | 288 | 2.0 | 8.0 | 0.00 | 0.00 | 0.00 | 61 | 1025.0 |
| 20260905130652 | 74 | 297 | 1.0 | 8.0 | 0.00 | 0.00 | 0.00 | 58 | 1025.0 |
| 20260905130126 | 75 | 248 | 1.0 | 5.0 | 0.00 | 0.00 | 0.00 | 59 | 1025.0 |
| 20260905125924 | 75 | 247 | 1.0 | 5.0 | 0.00 | 0.00 | 0.00 | 60 | 1024.9 |
| 20260905125718 | 75 | 259 | 1.0 | 5.0 | 0.00 | 0.00 | 0.00 | 60 | 1025.0 |
| 20260905125510 | 76 | 290 | 1.0 | 5.0 | 0.00 | 0.00 | 0.00 | 58 | 1025.0 |
| 20260905125305 | 75 | 253 | 1.0 | 5.0 | 0.00 | 0.00 | 0.00 | 57 | 1024.9 |
| 20260905125053 | 75 | 300 | 0.0 | 5.0 | 0.00 | 0.00 | 0.00 | 58 | 1024.9 |
| 20260905124844 | 75 | 211 | 0.0 | 4.0 | 0.00 | 0.00 | 0.00 | 60 | 1024.9 |
| 20260905124644 | 75 | 287 | 1.0 | 4.0 | 0.00 | 0.00 | 0.00 | 59 | 1025.1 |
| 20260905124434 | 75 | 252 | 1.0 | 4.0 | 0.00 | 0.00 | 0.00 | 60 | 1025.0 |
| 20260905124229 | 75 | 266 | 1.0 | 4.0 | 0.00 | 0.00 | 0.00 | 58 | 1024.9 |
| 20260905124026 | 75 | 224 | 1.0 | 4.0 | 0.00 | 0.00 | 0.00 | 57 | 1024.9 |
| 20260905123503 | 76 | 281 | 1.0 | 5.0 | 0.00 | 0.00 | 0.00 | 60 | 1025.0 |
| 20260905123257 | 76 | 297 | 1.0 | 5.0 | 0.00 | 0.00 | 0.00 | 58 | 1025.0 |
| 20260905123052 | 75 | 268 | 1.0 | 5.0 | 0.00 | 0.00 | 0.00 | 58 | 1025.0 |
| 20260905122847 | 76 | 240 | 1.0 | 5.0 | 0.00 | 0.00 | 0.00 | 61 | 1025.0 |
| 20260905122641 | 76 | 255 | 1.0 | 5.0 | 0.00 | 0.00 | 0.00 | 61 | 1024.9 |
| 20260905122433 | 76 | 259 | 1.0 | 5.0 | 0.00 | 0.00 | 0.00 | 61 | 1024.9 |
| 20260905122228 | 76 | 268 | 0.0 | 5.0 | 0.00 | 0.00 | 0.00 | 62 | 1024.9 |
| 20260905121709 | 76 | 128 | 0.0 | 4.0 | 0.00 | 0.00 | 0.00 | 63 | 1024.9 |
| 20260905121459 | 76 | 296 | 0.0 | 5.0 | 0.00 | 0.00 | 0.00 | 61 | 1025.0 |
| 20260905121251 | 75 | 262 | 0.0 | 5.0 | 0.00 | 0.00 | 0.00 | 62 | 1024.9 |
| 20260905121051 | 75 | 262 | 0.0 | 5.0 | 0.00 | 0.00 | 0.00 | 63 | 1024.9 |
| 20260905120844 | 75 | 293 | 0.0 | 5.0 | 0.00 | 0.00 | 0.00 | 60 | 1024.9 |
| 20260905120314 | 75 | 260 | 0.0 | 4.0 | 0.00 | 0.00 | 0.00 | 62 | 1024.9 |
| 20260905120104 | 75 | 295 | 0.0 | 4.0 | 0.00 | 0.00 | 0.00 | 61 | 1024.9 |
| 20260905115536 | 74 | 263 | 0.0 | 2.0 | 0.00 | 0.00 | 0.00 | 61 | 1024.9 |
| 20260905115335 | 74 | 292 | 1.0 | 9.0 | 0.00 | 0.00 | 0.00 | 61 | 1025.0 |
| 20260905115127 | 74 | 321 | 1.0 | 9.0 | 0.00 | 0.00 | 0.00 | 65 | 1025.0 |
| 20260905114921 | 74 | 238 | 1.0 | 9.0 | 0.00 | 0.00 | 0.00 | 63 | 1025.1 |
| 20260905114717 | 74 | 284 | 1.0 | 9.0 | 0.00 | 0.00 | 0.00 | 62 | 1025.1 |
| 20260905114508 | 74 | 291 | 1.0 | 9.0 | 0.00 | 0.00 | 0.00 | 65 | 1025.0 |
| 20260905114257 | 73 | 241 | 2.0 | 9.0 | 0.00 | 0.00 | 0.00 | 63 | 1025.1 |
| 20260905114057 | 73 | 259 | 2.0 | 9.0 | 0.00 | 0.00 | 0.00 | 63 | 1025.1 |
| 20260905113851 | 73 | 250 | 2.0 | 9.0 | 0.00 | 0.00 | 0.00 | 63 | 1025.1 |
| 20260905113651 | 73 | 304 | 2.0 | 9.0 | 0.00 | 0.00 | 0.00 | 61 | 1025.1 |
| 20260905113442 | 74 | 295 | 1.0 | 5.0 | 0.00 | 0.00 | 0.00 | 63 | 1025.2 |
| 20260905113238 | 74 | 251 | 0.0 | 5.0 | 0.00 | 0.00 | 0.00 | 62 | 1025.2 |
| 20260905113032 | 74 | 283 | 0.0 | 4.0 | 0.00 | 0.00 | 0.00 | 63 | 1025.2 |
| 20260905112828 | 74 | 308 | 0.0 | 4.0 | 0.00 | 0.00 | 0.00 | 63 | 1025.2 |
| 20260905112627 | 74 | 270 | 0.0 | 4.0 | 0.00 | 0.00 | 0.00 | 65 | 1025.3 |
| 20260905112420 | 73 | 264 | 0.0 | 5.0 | 0.00 | 0.00 | 0.00 | 64 | 1025.2 |
| 20260905111852 | 72 | 248 | 1.0 | 5.0 | 0.00 | 0.00 | 0.00 | 64 | 1025.2 |
| 20260905111004 | 72 | 291 | 1.0 | 6.0 | 0.00 | 0.00 | 0.00 | 63 | 1025.3 |
| 20260905110428 | 72 | 302 | 1.0 | 6.0 | 0.00 | 0.00 | 0.00 | 64 | 1025.4 |
| 20260905110221 | 72 | 286 | 1.0 | 6.0 | 0.00 | 0.00 | 0.00 | 65 | 1025.3 |
| 20260905110016 | 72 | 288 | 1.0 | 6.0 | 0.00 | 0.00 | 0.00 | 64 | 1025.3 |
| 20260905105815 | 72 | 248 | 1.0 | 6.0 | 0.00 | 0.00 | 0.00 | 66 | 1025.3 |
| 20260905105610 | 72 | 266 | 1.0 | 6.0 | 0.00 | 0.00 | 0.00 | 65 | 1025.3 |
| 20260905105404 | 72 | 279 | 1.0 | 3.0 | 0.00 | 0.00 | 0.00 | 65 | 1025.2 |
| 20260905105202 | 73 | 299 | 0.0 | 3.0 | 0.00 | 0.00 | 0.00 | 65 | 1025.3 |
| 20260905104957 | 73 | 280 | 1.0 | 5.0 | 0.00 | 0.00 | 0.00 | 65 | 1025.3 |
| 20260905104751 | 73 | 224 | 0.0 | 5.0 | 0.00 | 0.00 | 0.00 | 65 | 1025.3 |
| 20260905104540 | 73 | 270 | 0.0 | 5.0 | 0.00 | 0.00 | 0.00 | 67 | 1025.3 |
| 20260905104339 | 73 | 300 | 0.0 | 5.0 | 0.00 | 0.00 | 0.00 | 63 | 1025.3 |
| 20260905104140 | 73 | 259 | 1.0 | 5.0 | 0.00 | 0.00 | 0.00 | 65 | 1025.3 |
| 20260905103934 | 73 | 293 | 0.0 | 6.0 | 0.00 | 0.00 | 0.00 | 65 | 1025.4 |
| 20260905103401 | 72 | 264 | 0.0 | 6.0 | 0.00 | 0.00 | 0.00 | 67 | 1025.4 |
| 20260905103156 | 72 | 283 | 0.0 | 6.0 | 0.00 | 0.00 | 0.00 | 65 | 1025.4 |
| 20260905102950 | 71 | 223 | 0.0 | 7.0 | 0.00 | 0.00 | 0.00 | 65 | 1025.4 |
| 20260905102746 | 71 | 297 | 1.0 | 7.0 | 0.00 | 0.00 | 0.00 | 63 | 1025.5 |
| 20260905102541 | 71 | 289 | 1.0 | 7.0 | 0.00 | 0.00 | 0.00 | 64 | 1025.5 |
| 20260905102337 | 71 | 260 | 2.0 | 7.0 | 0.00 | 0.00 | 0.00 | 68 | 1025.4 |
| 20260905102135 | 71 | 295 | 2.0 | 7.0 | 0.00 | 0.00 | 0.00 | 65 | 1025.4 |
| 20260905101926 | 71 | 255 | 3.0 | 7.0 | 0.00 | 0.00 | 0.00 | 65 | 1025.5 |
| 20260905101727 | 71 | 295 | 3.0 | 7.0 | 0.00 | 0.00 | 0.00 | 65 | 1025.4 |
| 20260905101526 | 71 | 305 | 3.0 | 7.0 | 0.00 | 0.00 | 0.00 | 66 | 1025.5 |
| 20260905101324 | 71 | 276 | 2.0 | 7.0 | 0.00 | 0.00 | 0.00 | 65 | 1025.4 |
| 20260905101115 | 71 | 307 | 1.0 | 6.0 | 0.00 | 0.00 | 0.00 | 65 | 1025.3 |
| 20260905100912 | 71 | 293 | 2.0 | 6.0 | 0.00 | 0.00 | 0.00 | 63 | 1025.4 |
| 20260905100711 | 71 | 298 | 2.0 | 6.0 | 0.00 | 0.00 | 0.00 | 63 | 1025.4 |
| 20260905100505 | 71 | 271 | 1.0 | 6.0 | 0.00 | 0.00 | 0.00 | 64 | 1025.3 |
| 20260905095945 | 71 | 292 | 2.0 | 6.0 | 0.00 | 0.00 | 0.00 | 67 | 1025.3 |
| 20260905095426 | 70 | 253 | 2.0 | 6.0 | 0.00 | 0.00 | 0.00 | 64 | 1025.5 |
| 20260905095223 | 70 | 310 | 2.0 | 6.0 | 0.00 | 0.00 | 0.00 | 65 | 1025.4 |
| 20260905095020 | 70 | 296 | 2.0 | 5.0 | 0.00 | 0.00 | 0.00 | 65 | 1025.4 |
| 20260905094812 | 71 | 288 | 1.0 | 4.0 | 0.00 | 0.00 | 0.00 | 64 | 1025.4 |
| 20260905094607 | 71 | 255 | 1.0 | 4.0 | 0.00 | 0.00 | 0.00 | 64 | 1025.4 |
| 20260905094401 | 71 | 296 | 1.0 | 5.0 | 0.00 | 0.00 | 0.00 | 64 | 1025.4 |
| 20260905094156 | 71 | 300 | 0.0 | 5.0 | 0.00 | 0.00 | 0.00 | 66 | 1025.4 |
| 20260905093950 | 71 | 241 | 0.0 | 5.0 | 0.00 | 0.00 | 0.00 | 66 | 1025.5 |
| 20260905093742 | 70 | 238 | 0.0 | 5.0 | 0.00 | 0.00 | 0.00 | 67 | 1025.5 |
| 20260905093534 | 70 | 221 | 0.0 | 5.0 | 0.00 | 0.00 | 0.00 | 64 | 1025.4 |
| 20260905093003 | 70 | 294 | 1.0 | 5.0 | 0.00 | 0.00 | 0.00 | 62 | 1025.3 |
| 20260905092759 | 70 | 299 | 0.0 | 5.0 | 0.00 | 0.00 | 0.00 | 64 | 1025.3 |
| 20260905092555 | 70 | 254 | 0.0 | 5.0 | 0.00 | 0.00 | 0.00 | 62 | 1025.3 |
| 20260905092356 | 70 | 308 | 0.0 | 4.0 | 0.00 | 0.00 | 0.00 | 61 | 1025.3 |
| 20260905092149 | 71 | 296 | 0.0 | 3.0 | 0.00 | 0.00 | 0.00 | 63 | 1025.3 |
| 20260905091947 | 71 | 274 | 0.0 | 3.0 | 0.00 | 0.00 | 0.00 | 62 | 1025.2 |
| 20260905091739 | 70 | 314 | 0.0 | 3.0 | 0.00 | 0.00 | 0.00 | 65 | 1025.2 |
| 20260905091530 | 70 | 255 | 0.0 | 3.0 | 0.00 | 0.00 | 0.00 | 61 | 1025.2 |
| 20260905091323 | 70 | 229 | 0.0 | 4.0 | 0.00 | 0.00 | 0.00 | 63 | 1025.2 |
| 20260905091115 | 70 | 262 | 0.0 | 4.0 | 0.00 | 0.00 | 0.00 | 64 | 1025.3 |
| 20260905090908 | 70 | 242 | 0.0 | 4.0 | 0.00 | 0.00 | 0.00 | 63 | 1025.2 |
| 20260905090708 | 70 | 270 | 0.0 | 4.0 | 0.00 | 0.00 | 0.00 | 63 | 1025.2 |
| 20260905090508 | 70 | 239 | 0.0 | 4.0 | 0.00 | 0.00 | 0.00 | 62 | 1025.2 |
| 20260905090308 | 70 | 244 | 0.0 | 5.0 | 0.00 | 0.00 | 0.00 | 64 | 1025.3 |
| 20260905085738 | 69 | 303 | 0.0 | 5.0 | 0.00 | 0.00 | 0.00 | 65 | 1025.2 |
| 20260905085534 | 69 | 276 | 0.0 | 5.0 | 0.00 | 0.00 | 0.00 | 64 | 1025.1 |
| 20260905085332 | 69 | 291 | 0.0 | 5.0 | 0.00 | 0.00 | 0.00 | 62 | 1025.2 |
| 20260905085129 | 69 | 202 | 0.0 | 5.0 | 0.00 | 0.00 | 0.00 | 62 | 1025.1 |
| 20260905084928 | 69 | 263 | 0.0 | 5.0 | 0.00 | 0.00 | 0.00 | 64 | 1025.2 |
| 20260905084724 | 69 | 248 | 0.0 | 5.0 | 0.00 | 0.00 | 0.00 | 64 | 1025.1 |
| 20260905084520 | 69 | 241 | 0.0 | 5.0 | 0.00 | 0.00 | 0.00 | 62 | 1025.0 |
| 20260905084317 | 69 | 246 | 0.0 | 3.0 | 0.00 | 0.00 | 0.00 | 63 | 1025.0 |
| 20260905083749 | 69 | 304 | 0.0 | 2.0 | 0.00 | 0.00 | 0.00 | 66 | 1025.0 |
| 20260905083544 | 69 | 256 | 0.0 | 2.0 | 0.00 | 0.00 | 0.00 | 66 | 1025.0 |
| 20260905083022 | 69 | 236 | 1.0 | 4.0 | 0.00 | 0.00 | 0.00 | 63 | 1024.9 |
| 20260905082820 | 69 | 252 | 0.0 | 4.0 | 0.00 | 0.00 | 0.00 | 64 | 1025.0 |
| 20260905082619 | 69 | 257 | 0.0 | 4.0 | 0.00 | 0.00 | 0.00 | 63 | 1025.0 |
| 20260905082414 | 70 | 279 | 0.0 | 4.0 | 0.00 | 0.00 | 0.00 | 64 | 1024.9 |
| 20260905082215 | 70 | 248 | 0.0 | 4.0 | 0.00 | 0.00 | 0.00 | 65 | 1024.9 |
| 20260905082014 | 70 | 209 | 0.0 | 4.0 | 0.00 | 0.00 | 0.00 | 65 | 1024.9 |
| 20260905081814 | 70 | 236 | 0.0 | 4.0 | 0.00 | 0.00 | 0.00 | 64 | 1024.8 |
| 20260905081244 | 70 | 259 | 0.0 | 4.0 | 0.00 | 0.00 | 0.00 | 66 | 1024.6 |
| 20260905081038 | 69 | 260 | 1.0 | 4.0 | 0.00 | 0.00 | 0.00 | 64 | 1024.7 |
| 20260905080831 | 70 | 248 | 0.0 | 7.0 | 0.00 | 0.00 | 0.00 | 65 | 1024.7 |
| 20260905080628 | 69 | 225 | 1.0 | 7.0 | 0.00 | 0.00 | 0.00 | 64 | 1024.7 |
| 20260905080422 | 69 | 280 | 1.0 | 7.0 | 0.00 | 0.00 | 0.00 | 66 | 1024.6 |
| 20260905080215 | 69 | 281 | 2.0 | 7.0 | 0.00 | 0.00 | 0.00 | 65 | 1024.6 |
| 20260905080009 | 69 | 239 | 2.0 | 7.0 | 0.00 | 0.00 | 0.00 | 65 | 1024.5 |
| 20260905075802 | 69 | 248 | 2.0 | 7.0 | 0.00 | 0.00 | 0.00 | 64 | 1024.5 |
| 20260905075553 | 69 | 229 | 2.0 | 7.0 | 0.00 | 0.00 | 0.00 | 63 | 1024.4 |
| 20260905075342 | 69 | 246 | 1.0 | 7.0 | 0.00 | 0.00 | 0.00 | 66 | 1024.5 |
| 20260905075142 | 69 | 308 | 1.0 | 7.0 | 0.00 | 0.00 | 0.00 | 67 | 1024.4 |
| 20260905074934 | 69 | 265 | 2.0 | 7.0 | 0.00 | 0.00 | 0.00 | 65 | 1024.4 |
| 20260905074724 | 69 | 228 | 1.0 | 5.0 | 0.00 | 0.00 | 0.00 | 65 | 1024.3 |
| 20260905074516 | 69 | 246 | 2.0 | 5.0 | 0.00 | 0.00 | 0.00 | 64 | 1024.3 |
| 20260905074308 | 69 | 232 | 2.0 | 5.0 | 0.00 | 0.00 | 0.00 | 63 | 1024.3 |
| 20260905074104 | 69 | 255 | 1.0 | 5.0 | 0.00 | 0.00 | 0.00 | 67 | 1024.5 |
| 20260905073855 | 69 | 234 | 1.0 | 4.0 | 0.00 | 0.00 | 0.00 | 67 | 1024.4 |
| 20260905073650 | 68 | 223 | 2.0 | 4.0 | 0.00 | 0.00 | 0.00 | 65 | 1024.4 |
| 20260905073119 | 68 | 250 | 1.0 | 5.0 | 0.00 | 0.00 | 0.00 | 66 | 1024.3 |
| 20260905072915 | 68 | 234 | 1.0 | 5.0 | 0.00 | 0.00 | 0.00 | 66 | 1024.3 |
| 20260905072708 | 68 | 234 | 1.0 | 5.0 | 0.00 | 0.00 | 0.00 | 66 | 1024.3 |
| 20260905072458 | 68 | 243 | 2.0 | 5.0 | 0.00 | 0.00 | 0.00 | 67 | 1024.3 |
| 20260905072252 | 68 | 205 | 2.0 | 5.0 | 0.00 | 0.00 | 0.00 | 68 | 1024.2 |
| 20260905072048 | 68 | 258 | 2.0 | 5.0 | 0.00 | 0.00 | 0.00 | 67 | 1024.1 |
| 20260905071846 | 68 | 241 | 2.0 | 5.0 | 0.00 | 0.00 | 0.00 | 68 | 1024.2 |
| 20260905071646 | 68 | 236 | 1.0 | 5.0 | 0.00 | 0.00 | 0.00 | 69 | 1024.1 |
| 20260905071117 | 68 | 227 | 1.0 | 4.0 | 0.00 | 0.00 | 0.00 | 66 | 1024.0 |
| 20260905070909 | 68 | 236 | 0.0 | 4.0 | 0.00 | 0.00 | 0.00 | 65 | 1024.1 |
| 20260905070702 | 68 | 245 | 0.0 | 4.0 | 0.00 | 0.00 | 0.00 | 64 | 1023.9 |
| 20260905070502 | 68 | 233 | 0.0 | 3.0 | 0.00 | 0.00 | 0.00 | 64 | 1024.0 |
| 20260905065930 | 68 | 218 | 0.0 | 3.0 | 0.00 | 0.00 | 0.00 | 64 | 1024.1 |
| 20260905065720 | 68 | 236 | 0.0 | 4.0 | 0.00 | 0.00 | 0.00 | 65 | 1023.9 |
| 20260905065511 | 68 | 231 | 0.0 | 4.0 | 0.00 | 0.00 | 0.00 | 66 | 1023.9 |
| 20260905065310 | 68 | 243 | 0.0 | 4.0 | 0.00 | 0.00 | 0.00 | 65 | 1023.7 |
| 20260905064741 | 68 | 257 | 0.0 | 5.0 | 0.00 | 0.00 | 0.00 | 62 | 1023.5 |
| 20260905064540 | 68 | 241 | 0.0 | 5.0 | 0.00 | 0.00 | 0.00 | 62 | 1023.5 |
| 20260905064335 | 68 | 227 | 0.0 | 5.0 | 0.00 | 0.00 | 0.00 | 62 | 1023.4 |
| 20260905064129 | 68 | 236 | 1.0 | 5.0 | 0.00 | 0.00 | 0.00 | 61 | 1023.4 |
| 20260905063929 | 69 | 61 | 1.0 | 5.0 | 0.00 | 0.00 | 0.00 | 61 | 1023.3 |
| 20260905063726 | 69 | 237 | 1.0 | 5.0 | 0.00 | 0.00 | 0.00 | 61 | 1023.2 |
| 20260905063518 | 69 | 173 | 1.0 | 5.0 | 0.00 | 0.00 | 0.00 | 62 | 1023.2 |
| 20260905063319 | 68 | 271 | 1.0 | 5.0 | 0.00 | 0.00 | 0.00 | 62 | 1023.2 |
| 20260905063108 | 68 | 118 | 1.0 | 5.0 | 0.00 | 0.00 | 0.00 | 61 | 1023.2 |
| 20260905062857 | 68 | 113 | 0.0 | 5.0 | 0.00 | 0.00 | 0.00 | 61 | 1023.3 |
| 20260905062648 | 68 | 208 | 0.0 | 3.0 | 0.00 | 0.00 | 0.00 | 61 | 1023.2 |
| 20260905062443 | 68 | 226 | 0.0 | 3.0 | 0.00 | 0.00 | 0.00 | 61 | 1023.2 |
| 20260905062237 | 68 | 233 | 0.0 | 1.0 | 0.00 | 0.00 | 0.00 | 61 | 1023.3 |
| 20260905062036 | 68 | 228 | 1.0 | 4.0 | 0.00 | 0.00 | 0.00 | 60 | 1023.2 |
| 20260905061835 | 68 | 251 | 1.0 | 4.0 | 0.00 | 0.00 | 0.00 | 60 | 1023.3 |
| 20260905061629 | 68 | 236 | 1.0 | 4.0 | 0.00 | 0.00 | 0.00 | 61 | 1023.2 |
| 20260905061423 | 68 | 243 | 1.0 | 4.0 | 0.00 | 0.00 | 0.00 | 60 | 1023.0 |
| 20260905061217 | 68 | 217 | 0.0 | 4.0 | 0.00 | 0.00 | 0.00 | 61 | 1023.1 |
| 20260905060644 | 68 | 252 | 0.0 | 2.0 | 0.00 | 0.00 | 0.00 | 61 | 1023.2 |
| 20260905060442 | 68 | 232 | 0.0 | 2.0 | 0.00 | 0.00 | 0.00 | 61 | 1023.2 |
| 20260905055919 | 66 | 231 | 0.0 | 2.0 | 0.00 | 0.00 | 0.00 | 64 | 1023.5 |
| 20260905055719 | 66 | 224 | 0.0 | 2.0 | 0.00 | 0.00 | 0.00 | 64 | 1023.5 |
| 20260905055518 | 66 | 232 | 0.0 | 2.0 | 0.00 | 0.00 | 0.00 | 65 | 1023.4 |
| 20260905055312 | 65 | 235 | 0.0 | 2.0 | 0.00 | 0.00 | 0.00 | 67 | 1023.7 |
| 20260905055111 | 65 | 228 | 0.0 | 1.0 | 0.00 | 0.00 | 0.00 | 67 | 1023.6 |
| 20260905054907 | 65 | 233 | 0.0 | 1.0 | 0.00 | 0.00 | 0.00 | 68 | 1023.6 |
| 20260905054657 | 64 | 228 | 0.0 | 1.0 | 0.00 | 0.00 | 0.00 | 68 | 1023.6 |
| 20260905054458 | 64 | 233 | 0.0 | 1.0 | 0.00 | 0.00 | 0.00 | 69 | 1023.6 |
| 20260905054255 | 64 | 244 | 0.0 | 0.0 | 0.00 | 0.00 | 0.00 | 69 | 1023.7 |
| 20260905054057 | 64 | 244 | 0.0 | 5.0 | 0.00 | 0.00 | 0.00 | 70 | 1023.7 |
| 20260905053853 | 64 | 236 | 0.0 | 5.0 | 0.00 | 0.00 | 0.00 | 70 | 1023.7 |
| 20260905053650 | 64 | 236 | 1.0 | 5.0 | 0.00 | 0.00 | 0.00 | 70 | 1023.7 |
| 20260905053442 | 64 | 236 | 1.0 | 5.0 | 0.00 | 0.00 | 0.00 | 70 | 1023.6 |
| 20260905053234 | 64 | 248 | 1.0 | 5.0 | 0.00 | 0.00 | 0.00 | 70 | 1023.7 |
| 20260905053024 | 64 | 226 | 1.0 | 5.0 | 0.00 | 0.00 | 0.00 | 70 | 1023.7 |
| 20260905052818 | 64 | 245 | 1.0 | 5.0 | 0.00 | 0.00 | 0.00 | 70 | 1023.7 |
| 20260905052617 | 64 | 234 | 1.0 | 5.0 | 0.00 | 0.00 | 0.00 | 70 | 1023.7 |
| 20260905052103 | 64 | 231 | 1.0 | 5.0 | 0.00 | 0.00 | 0.00 | 71 | 1023.5 |
| 20260905051855 | 64 | 229 | 0.0 | 4.0 | 0.00 | 0.00 | 0.00 | 71 | 1023.6 |
| 20260905051647 | 64 | 240 | 0.0 | 4.0 | 0.00 | 0.00 | 0.00 | 71 | 1023.4 |
| 20260905051442 | 64 | 230 | 0.0 | 4.0 | 0.00 | 0.00 | 0.00 | 71 | 1023.4 |
| 20260905051233 | 64 | 253 | 0.0 | 4.0 | 0.00 | 0.00 | 0.00 | 71 | 1023.4 |
| 20260905051025 | 64 | 226 | 0.0 | 4.0 | 0.00 | 0.00 | 0.00 | 71 | 1023.5 |
| 20260905050816 | 64 | 238 | 0.0 | 4.0 | 0.00 | 0.00 | 0.00 | 70 | 1023.4 |
| 20260905050300 | 64 | 237 | 1.0 | 5.0 | 0.00 | 0.00 | 0.00 | 70 | 1023.3 |
| 20260905045854 | 64 | 220 | 1.0 | 5.0 | 0.00 | 0.00 | 0.00 | 70 | 1023.3 |
| 20260905045329 | 64 | 203 | 2.0 | 5.0 | 0.00 | 0.00 | 0.00 | 70 | 1023.2 |
| 20260905045123 | 64 | 241 | 2.0 | 5.0 | 0.00 | 0.00 | 0.00 | 70 | 1023.2 |
| 20260905044922 | 64 | 231 | 2.0 | 5.0 | 0.00 | 0.00 | 0.00 | 69 | 1023.2 |
| 20260905044722 | 64 | 227 | 2.0 | 5.0 | 0.00 | 0.00 | 0.00 | 70 | 1023.1 |
| 20260905044519 | 64 | 240 | 2.0 | 4.0 | 0.00 | 0.00 | 0.00 | 70 | 1023.0 |
| 20260905044309 | 64 | 241 | 2.0 | 5.0 | 0.00 | 0.00 | 0.00 | 69 | 1023.0 |
| 20260905044109 | 64 | 235 | 2.0 | 5.0 | 0.00 | 0.00 | 0.00 | 69 | 1022.9 |
| 20260905043859 | 64 | 239 | 2.0 | 5.0 | 0.00 | 0.00 | 0.00 | 69 | 1022.9 |
| 20260905043335 | 64 | 238 | 2.0 | 5.0 | 0.00 | 0.00 | 0.00 | 69 | 1022.8 |
| 20260905043136 | 64 | 241 | 2.0 | 5.0 | 0.00 | 0.00 | 0.00 | 69 | 1022.9 |
| 20260905042930 | 64 | 233 | 3.0 | 5.0 | 0.00 | 0.00 | 0.00 | 69 | 1022.9 |
| 20260905042722 | 64 | 236 | 2.0 | 5.0 | 0.00 | 0.00 | 0.00 | 69 | 1022.8 |
| 20260905042514 | 64 | 240 | 2.0 | 5.0 | 0.00 | 0.00 | 0.00 | 68 | 1022.9 |
| 20260905042307 | 64 | 217 | 1.0 | 4.0 | 0.00 | 0.00 | 0.00 | 68 | 1022.8 |
| 20260905042103 | 64 | 245 | 1.0 | 4.0 | 0.00 | 0.00 | 0.00 | 67 | 1022.6 |
| 20260905041224 | 64 | 240 | 0.0 | 3.0 | 0.00 | 0.00 | 0.00 | 66 | 1022.8 |
| 20260905041023 | 65 | 243 | 0.0 | 3.0 | 0.00 | 0.00 | 0.00 | 65 | 1022.6 |
| 20260905040818 | 65 | 236 | 0.0 | 3.0 | 0.00 | 0.00 | 0.00 | 64 | 1022.7 |
| 20260905040613 | 65 | 250 | 0.0 | 3.0 | 0.00 | 0.00 | 0.00 | 64 | 1022.7 |
| 20260905035727 | 66 | 230 | 0.0 | 0.0 | 0.00 | 0.00 | 0.00 | 62 | 1022.7 |
| 20260905035203 | 66 | 240 | 0.0 | 1.0 | 0.00 | 0.00 | 0.00 | 61 | 1022.6 |
| 20260905034953 | 66 | 238 | 0.0 | 1.0 | 0.00 | 0.00 | 0.00 | 61 | 1022.6 |
| 20260905034754 | 66 | 239 | 0.0 | 1.0 | 0.00 | 0.00 | 0.00 | 61 | 1022.5 |
| 20260905034222 | 66 | 243 | 0.0 | 0.0 | 0.00 | 0.00 | 0.00 | 61 | 1022.4 |
| 20260905033703 | 66 | 248 | 0.0 | 3.0 | 0.00 | 0.00 | 0.00 | 60 | 1022.4 |
| 20260905033457 | 66 | 248 | 0.0 | 3.0 | 0.00 | 0.00 | 0.00 | 61 | 1022.3 |
| 20260905033252 | 66 | 237 | 1.0 | 3.0 | 0.00 | 0.00 | 0.00 | 61 | 1022.3 |
| 20260905033044 | 66 | 236 | 0.0 | 3.0 | 0.00 | 0.00 | 0.00 | 61 | 1022.2 |
| 20260905032845 | 66 | 240 | 0.0 | 3.0 | 0.00 | 0.00 | 0.00 | 61 | 1022.2 |
| 20260905032642 | 66 | 250 | 0.0 | 3.0 | 0.00 | 0.00 | 0.00 | 61 | 1022.2 |
| 20260905032434 | 66 | 236 | 0.0 | 3.0 | 0.00 | 0.00 | 0.00 | 61 | 1022.3 |
| 20260905032232 | 66 | 239 | 0.0 | 3.0 | 0.00 | 0.00 | 0.00 | 62 | 1022.2 |
| 20260905031335 | 66 | 247 | 0.0 | 0.0 | 0.00 | 0.00 | 0.00 | 61 | 1022.1 |
| 20260905031125 | 66 | 246 | 0.0 | 0.0 | 0.00 | 0.00 | 0.00 | 61 | 1022.2 |
| 20260905030924 | 66 | 259 | 0.0 | 1.0 | 0.00 | 0.00 | 0.00 | 61 | 1022.1 |
| 20260905030722 | 66 | 244 | 0.0 | 0.0 | 0.00 | 0.00 | 0.00 | 61 | 1022.0 |
| 20260905030513 | 66 | 244 | 0.0 | 0.0 | 0.00 | 0.00 | 0.00 | 61 | 1022.1 |
| 20260905030304 | 66 | 247 | 0.0 | 0.0 | 0.00 | 0.00 | 0.00 | 61 | 1022.1 |
| 20260905030100 | 66 | 245 | 0.0 | 3.0 | 0.00 | 0.00 | 0.00 | 61 | 1022.0 |
| 20260905025901 | 66 | 229 | 0.0 | 3.0 | 0.00 | 0.00 | 0.00 | 61 | 1022.2 |
| 20260905025334 | 66 | 250 | 0.0 | 2.0 | 0.00 | 0.00 | 0.00 | 61 | 1022.0 |
| 20260905024807 | 66 | 246 | 0.0 | 1.0 | 0.00 | 0.00 | 0.00 | 61 | 1021.9 |
| 20260905024603 | 66 | 235 | 0.0 | 1.0 | 0.00 | 0.00 | 0.00 | 61 | 1021.9 |
| 20260905024355 | 66 | 235 | 0.0 | 1.0 | 0.00 | 0.00 | 0.00 | 61 | 1021.9 |
| 20260905024155 | 67 | 235 | 0.0 | 1.0 | 0.00 | 0.00 | 0.00 | 61 | 1021.8 |
| 20260905023947 | 67 | 233 | 0.0 | 1.0 | 0.00 | 0.00 | 0.00 | 60 | 1021.8 |
| 20260905023740 | 67 | 233 | 0.0 | 3.0 | 0.00 | 0.00 | 0.00 | 60 | 1021.8 |
| 20260905023531 | 67 | 231 | 0.0 | 3.0 | 0.00 | 0.00 | 0.00 | 60 | 1021.9 |
| 20260905023009 | 67 | 233 | 0.0 | 3.0 | 0.00 | 0.00 | 0.00 | 60 | 1021.8 |
| 20260905022802 | 67 | 235 | 0.0 | 3.0 | 0.00 | 0.00 | 0.00 | 59 | 1021.8 |
| 20260905022554 | 67 | 236 | 0.0 | 3.0 | 0.00 | 0.00 | 0.00 | 60 | 1021.8 |
| 20260905022354 | 67 | 235 | 0.0 | 3.0 | 0.00 | 0.00 | 0.00 | 60 | 1021.9 |
| 20260905022146 | 67 | 228 | 0.0 | 3.0 | 0.00 | 0.00 | 0.00 | 60 | 1021.7 |
| 20260905021944 | 67 | 248 | 0.0 | 3.0 | 0.00 | 0.00 | 0.00 | 60 | 1021.8 |
| 20260905021739 | 66 | 214 | 0.0 | 3.0 | 0.00 | 0.00 | 0.00 | 60 | 1021.8 |
| 20260905021533 | 66 | 231 | 0.0 | 3.0 | 0.00 | 0.00 | 0.00 | 61 | 1021.7 |
| 20260905021331 | 66 | 236 | 0.0 | 3.0 | 0.00 | 0.00 | 0.00 | 61 | 1021.8 |
| 20260905021124 | 66 | 242 | 0.0 | 3.0 | 0.00 | 0.00 | 0.00 | 61 | 1021.7 |
| 20260905020913 | 66 | 240 | 0.0 | 3.0 | 0.00 | 0.00 | 0.00 | 61 | 1021.8 |
| 20260905020706 | 66 | 224 | 0.0 | 1.0 | 0.00 | 0.00 | 0.00 | 62 | 1021.8 |
| 20260905020505 | 66 | 234 | 0.0 | 0.0 | 0.00 | 0.00 | 0.00 | 62 | 1021.9 |
| 20260905015940 | 65 | 221 | 0.0 | 4.0 | 0.00 | 0.00 | 0.00 | 63 | 1021.9 |
| 20260905015421 | 65 | 226 | 0.0 | 4.0 | 0.00 | 0.00 | 0.00 | 64 | 1022.0 |
| 20260905015214 | 65 | 250 | 0.0 | 4.0 | 0.00 | 0.00 | 0.00 | 64 | 1021.9 |
| 20260905014654 | 65 | 225 | 1.0 | 4.0 | 0.00 | 0.00 | 0.00 | 64 | 1021.9 |
| 20260905014127 | 66 | 238 | 1.0 | 4.0 | 0.00 | 0.00 | 0.00 | 64 | 1021.9 |
| 20260905013552 | 67 | 245 | 1.0 | 8.0 | 0.00 | 0.00 | 0.00 | 63 | 1022.0 |
| 20260905013347 | 67 | 238 | 1.0 | 8.0 | 0.00 | 0.00 | 0.00 | 62 | 1022.0 |
| 20260905013137 | 67 | 251 | 1.0 | 8.0 | 0.00 | 0.00 | 0.00 | 62 | 1021.9 |
| 20260905012927 | 67 | 236 | 1.0 | 8.0 | 0.00 | 0.00 | 0.00 | 62 | 1021.9 |
| 20260905012728 | 67 | 224 | 2.0 | 8.0 | 0.00 | 0.00 | 0.00 | 62 | 1021.9 |
| 20260905012528 | 67 | 233 | 2.0 | 8.0 | 0.00 | 0.00 | 0.00 | 62 | 1022.0 |
| 20260905012323 | 67 | 215 | 3.0 | 8.0 | 0.00 | 0.00 | 0.00 | 61 | 1022.1 |
| 20260905011805 | 68 | 211 | 3.0 | 8.0 | 0.00 | 0.00 | 0.00 | 60 | 1022.2 |
| 20260905011239 | 68 | 235 | 3.0 | 7.0 | 0.00 | 0.00 | 0.00 | 61 | 1022.2 |
| 20260905011031 | 67 | 231 | 3.0 | 7.0 | 0.00 | 0.00 | 0.00 | 62 | 1022.2 |
| 20260905010820 | 67 | 260 | 3.0 | 7.0 | 0.00 | 0.00 | 0.00 | 62 | 1022.2 |
| 20260905010620 | 67 | 238 | 3.0 | 7.0 | 0.00 | 0.00 | 0.00 | 63 | 1022.2 |
| 20260905010046 | 67 | 236 | 2.0 | 7.0 | 0.00 | 0.00 | 0.00 | 64 | 1022.2 |
| 20260905005840 | 67 | 232 | 1.0 | 7.0 | 0.00 | 0.00 | 0.00 | 64 | 1022.3 |
| 20260905005642 | 67 | 242 | 1.0 | 7.0 | 0.00 | 0.00 | 0.00 | 65 | 1022.3 |
| 20260905005439 | 67 | 226 | 1.0 | 7.0 | 0.00 | 0.00 | 0.00 | 65 | 1022.2 |
| 20260905003930 | 68 | 231 | 0.0 | 0.0 | 0.00 | 0.00 | 0.00 | 65 | 1022.2 |
| 20260905003721 | 68 | 238 | 0.0 | 3.0 | 0.00 | 0.00 | 0.00 | 65 | 1022.1 |
| 20260905003515 | 68 | 248 | 1.0 | 3.0 | 0.00 | 0.00 | 0.00 | 65 | 1022.2 |
| 20260905003313 | 69 | 226 | 0.0 | 3.0 | 0.00 | 0.00 | 0.00 | 64 | 1022.3 |
| 20260905003109 | 69 | 245 | 0.0 | 3.0 | 0.00 | 0.00 | 0.00 | 64 | 1022.2 |
| 20260905002902 | 69 | 233 | 0.0 | 3.0 | 0.00 | 0.00 | 0.00 | 64 | 1022.2 |
| 20260905002341 | 69 | 234 | 0.0 | 4.0 | 0.00 | 0.00 | 0.00 | 64 | 1022.2 |
| 20260905001817 | 69 | 236 | 0.0 | 4.0 | 0.00 | 0.00 | 0.00 | 65 | 1022.2 |
| 20260905001250 | 69 | 237 | 0.0 | 5.0 | 0.00 | 0.00 | 0.00 | 64 | 1022.1 |
| 20260905001048 | 69 | 244 | 0.0 | 5.0 | 0.00 | 0.00 | 0.00 | 64 | 1022.1 |
| 20260905000848 | 69 | 238 | 1.0 | 5.0 | 0.00 | 0.00 | 0.00 | 63 | 1022.1 |
| 20260905000638 | 69 | 238 | 1.0 | 5.0 | 0.00 | 0.00 | 0.00 | 64 | 1022.0 |
| 20260905000428 | 69 | 243 | 2.0 | 5.0 | 0.00 | 0.00 | 0.00 | 63 | 1022.0 |
| 20260905000229 | 69 | 240 | 3.0 | 5.0 | 0.00 | 0.00 | 0.00 | 63 | 1022.1 |
| 20260905000018 | 69 | 231 | 3.0 | 5.0 | 0.00 | 0.00 | 0.00 | 63 | 1022.0 |
| 20260904235500 | 69 | 239 | 2.0 | 6.0 | 0.00 | 0.00 | 0.00 | 64 | 1022.2 |
| 20260904234612 | 71 | 228 | 2.0 | 6.0 | 0.00 | 0.00 | 0.00 | 61 | 1022.2 |
| 20260904234408 | 71 | 231 | 2.0 | 6.0 | 0.00 | 0.00 | 0.00 | 61 | 1022.2 |
| 20260904234200 | 71 | 235 | 2.0 | 6.0 | 0.00 | 0.00 | 0.00 | 61 | 1022.1 |
| 20260904233949 | 71 | 236 | 2.0 | 6.0 | 0.00 | 0.00 | 0.00 | 61 | 1022.1 |
| 20260904233430 | 71 | 247 | 2.0 | 6.0 | 0.00 | 0.00 | 0.00 | 61 | 1022.1 |
| 20260904233221 | 71 | 245 | 2.0 | 6.0 | 0.00 | 0.00 | 0.00 | 61 | 1022.1 |
| 20260904233011 | 71 | 248 | 3.0 | 6.0 | 0.00 | 0.00 | 0.00 | 62 | 1022.2 |
| 20260904232808 | 71 | 233 | 3.0 | 6.0 | 0.00 | 0.00 | 0.00 | 62 | 1022.1 |
| 20260904232601 | 70 | 255 | 3.0 | 6.0 | 0.00 | 0.00 | 0.00 | 62 | 1022.2 |
| 20260904231733 | 71 | 211 | 3.0 | 6.0 | 0.00 | 0.00 | 0.00 | 62 | 1022.0 |
| 20260904231530 | 71 | 243 | 3.0 | 7.0 | 0.00 | 0.00 | 0.00 | 62 | 1022.0 |
| 20260904231319 | 71 | 229 | 2.0 | 7.0 | 0.00 | 0.00 | 0.00 | 62 | 1021.9 |
| 20260904231117 | 71 | 238 | 3.0 | 7.0 | 0.00 | 0.00 | 0.00 | 62 | 1022.0 |
| 20260904230906 | 70 | 180 | 2.0 | 7.0 | 0.00 | 0.00 | 0.00 | 62 | 1021.9 |
| 20260904230705 | 71 | 233 | 3.0 | 7.0 | 0.00 | 0.00 | 0.00 | 62 | 1022.0 |
| 20260904230500 | 70 | 237 | 2.0 | 7.0 | 0.00 | 0.00 | 0.00 | 62 | 1021.9 |
| 20260904230251 | 71 | 247 | 2.0 | 7.0 | 0.00 | 0.00 | 0.00 | 62 | 1022.0 |
| 20260904230053 | 71 | 241 | 1.0 | 7.0 | 0.00 | 0.00 | 0.00 | 62 | 1021.9 |
| 20260904225853 | 71 | 235 | 1.0 | 7.0 | 0.00 | 0.00 | 0.00 | 61 | 1021.9 |
| 20260904225645 | 71 | 219 | 0.0 | 4.0 | 0.00 | 0.00 | 0.00 | 61 | 1021.9 |
| 20260904225444 | 71 | 245 | 0.0 | 4.0 | 0.00 | 0.00 | 0.00 | 61 | 1021.9 |
| 20260904224926 | 71 | 252 | 0.0 | 3.0 | 0.00 | 0.00 | 0.00 | 60 | 1021.9 |
| 20260904224043 | 72 | 264 | 1.0 | 3.0 | 0.00 | 0.00 | 0.00 | 60 | 1021.8 |
| 20260904223834 | 72 | 230 | 1.0 | 3.0 | 0.00 | 0.00 | 0.00 | 60 | 1021.7 |
| 20260904223633 | 72 | 213 | 0.0 | 2.0 | 0.00 | 0.00 | 0.00 | 60 | 1021.8 |
| 20260904223434 | 71 | 237 | 0.0 | 2.0 | 0.00 | 0.00 | 0.00 | 60 | 1021.7 |
| 20260904223227 | 71 | 250 | 0.0 | 2.0 | 0.00 | 0.00 | 0.00 | 60 | 1021.8 |
| 20260904223025 | 71 | 230 | 0.0 | 3.0 | 0.00 | 0.00 | 0.00 | 61 | 1021.8 |
| 20260904222822 | 71 | 233 | 0.0 | 3.0 | 0.00 | 0.00 | 0.00 | 61 | 1021.8 |
| 20260904222616 | 71 | 236 | 0.0 | 3.0 | 0.00 | 0.00 | 0.00 | 61 | 1021.8 |
| 20260904222411 | 71 | 236 | 0.0 | 3.0 | 0.00 | 0.00 | 0.00 | 61 | 1021.8 |
| 20260904222201 | 71 | 219 | 0.0 | 3.0 | 0.00 | 0.00 | 0.00 | 61 | 1021.8 |
| 20260904222000 | 71 | 234 | 0.0 | 3.0 | 0.00 | 0.00 | 0.00 | 61 | 1021.8 |
| 20260904221755 | 71 | 252 | 0.0 | 3.0 | 0.00 | 0.00 | 0.00 | 61 | 1021.8 |
| 20260904221556 | 71 | 226 | 0.0 | 3.0 | 0.00 | 0.00 | 0.00 | 61 | 1021.9 |
| 20260904221027 | 71 | 245 | 1.0 | 3.0 | 0.00 | 0.00 | 0.00 | 61 | 1021.9 |
| 20260904220818 | 71 | 221 | 0.0 | 3.0 | 0.00 | 0.00 | 0.00 | 61 | 1021.9 |
| 20260904220259 | 71 | 230 | 0.0 | 3.0 | 0.00 | 0.00 | 0.00 | 60 | 1022.0 |
| 20260904215728 | 72 | 243 | 0.0 | 3.0 | 0.00 | 0.00 | 0.00 | 60 | 1021.9 |
| 20260904215529 | 72 | 233 | 0.0 | 3.0 | 0.00 | 0.00 | 0.00 | 60 | 1022.0 |
| 20260904215329 | 72 | 212 | 0.0 | 3.0 | 0.00 | 0.00 | 0.00 | 60 | 1021.9 |
| 20260904214438 | 72 | 220 | 0.0 | 3.0 | 0.00 | 0.00 | 0.00 | 59 | 1021.9 |
| 20260904213912 | 72 | 212 | 1.0 | 3.0 | 0.00 | 0.00 | 0.00 | 59 | 1021.8 |
| 20260904213701 | 72 | 233 | 1.0 | 3.0 | 0.00 | 0.00 | 0.00 | 59 | 1021.8 |
| 20260904213500 | 72 | 234 | 1.0 | 3.0 | 0.00 | 0.00 | 0.00 | 59 | 1021.7 |
| 20260904213254 | 72 | 248 | 1.0 | 3.0 | 0.00 | 0.00 | 0.00 | 59 | 1021.7 |
| 20260904213055 | 72 | 256 | 1.0 | 3.0 | 0.00 | 0.00 | 0.00 | 59 | 1021.6 |
| 20260904212845 | 72 | 222 | 0.0 | 2.0 | 0.00 | 0.00 | 0.00 | 59 | 1021.7 |
| 20260904212636 | 72 | 245 | 0.0 | 2.0 | 0.00 | 0.00 | 0.00 | 59 | 1021.7 |
| 20260904212436 | 72 | 242 | 0.0 | 3.0 | 0.00 | 0.00 | 0.00 | 59 | 1021.7 |
| 20260904211917 | 71 | 249 | 0.0 | 3.0 | 0.00 | 0.00 | 0.00 | 60 | 1021.8 |
| 20260904211711 | 71 | 257 | 0.0 | 3.0 | 0.00 | 0.00 | 0.00 | 60 | 1021.8 |
| 20260904211501 | 72 | 259 | 0.0 | 3.0 | 0.00 | 0.00 | 0.00 | 60 | 1021.8 |
| 20260904211251 | 72 | 238 | 0.0 | 3.0 | 0.00 | 0.00 | 0.00 | 59 | 1021.9 |
| 20260904211048 | 72 | 244 | 0.0 | 3.0 | 0.00 | 0.00 | 0.00 | 59 | 1021.9 |
| 20260904210845 | 72 | 226 | 0.0 | 3.0 | 0.00 | 0.00 | 0.00 | 59 | 1021.9 |
| 20260904210638 | 72 | 244 | 0.0 | 3.0 | 0.00 | 0.00 | 0.00 | 60 | 1021.9 |
| 20260904210434 | 72 | 232 | 0.0 | 4.0 | 0.00 | 0.00 | 0.00 | 60 | 1021.9 |
| 20260904210228 | 72 | 221 | 0.0 | 4.0 | 0.00 | 0.00 | 0.00 | 60 | 1021.8 |
| 20260904210028 | 72 | 244 | 0.0 | 4.0 | 0.00 | 0.00 | 0.00 | 60 | 1021.9 |
| 20260904205826 | 72 | 247 | 0.0 | 4.0 | 0.00 | 0.00 | 0.00 | 60 | 1021.8 |
| 20260904205627 | 72 | 245 | 0.0 | 4.0 | 0.00 | 0.00 | 0.00 | 60 | 1021.9 |
| 20260904205419 | 72 | 243 | 0.0 | 10.0 | 0.00 | 0.00 | 0.00 | 60 | 1021.9 |
| 20260904205219 | 72 | 252 | 0.0 | 10.0 | 0.00 | 0.00 | 0.00 | 60 | 1021.9 |
| 20260904205014 | 72 | 250 | 0.0 | 10.0 | 0.00 | 0.00 | 0.00 | 59 | 1021.9 |
| 20260904204810 | 72 | 248 | 0.0 | 10.0 | 0.00 | 0.00 | 0.00 | 59 | 1021.9 |
| 20260904204603 | 72 | 234 | 1.0 | 10.0 | 0.00 | 0.00 | 0.00 | 59 | 1021.9 |
| 20260904204401 | 72 | 231 | 1.0 | 10.0 | 0.00 | 0.00 | 0.00 | 59 | 1021.8 |
| 20260904204153 | 72 | 245 | 1.0 | 10.0 | 0.00 | 0.00 | 0.00 | 59 | 1021.9 |
| 20260904203951 | 72 | 229 | 1.0 | 10.0 | 0.00 | 0.00 | 0.00 | 59 | 1021.8 |
| 20260904203747 | 72 | 242 | 1.0 | 10.0 | 0.00 | 0.00 | 0.00 | 59 | 1021.9 |
| 20260904203541 | 72 | 248 | 0.0 | 8.0 | 0.00 | 0.00 | 0.00 | 59 | 1021.8 |
| 20260904203339 | 72 | 247 | 0.0 | 7.0 | 0.00 | 0.00 | 0.00 | 58 | 1021.8 |
| 20260904203138 | 72 | 245 | 0.0 | 5.0 | 0.00 | 0.00 | 0.00 | 59 | 1021.9 |
| 20260904202608 | 72 | 249 | 0.0 | 5.0 | 0.00 | 0.00 | 0.00 | 58 | 1021.9 |
| 20260904202358 | 72 | 203 | 0.0 | 4.0 | 0.00 | 0.00 | 0.00 | 58 | 1021.9 |
| 20260904202148 | 72 | 242 | 0.0 | 3.0 | 0.00 | 0.00 | 0.00 | 58 | 1021.9 |
| 20260904201942 | 72 | 252 | 0.0 | 3.0 | 0.00 | 0.00 | 0.00 | 59 | 1022.0 |
| 20260904201739 | 72 | 239 | 0.0 | 3.0 | 0.00 | 0.00 | 0.00 | 58 | 1021.9 |
| 20260904201537 | 72 | 236 | 0.0 | 3.0 | 0.00 | 0.00 | 0.00 | 58 | 1021.8 |
| 20260904201333 | 72 | 275 | 0.0 | 3.0 | 0.00 | 0.00 | 0.00 | 59 | 1021.8 |
| 20260904201127 | 72 | 233 | 0.0 | 3.0 | 0.00 | 0.00 | 0.00 | 59 | 1021.9 |
| 20260904200926 | 72 | 222 | 0.0 | 3.0 | 0.00 | 0.00 | 0.00 | 59 | 1021.7 |
| 20260904200722 | 72 | 234 | 0.0 | 3.0 | 0.00 | 0.00 | 0.00 | 59 | 1021.7 |
| 20260904200519 | 72 | 231 | 0.0 | 3.0 | 0.00 | 0.00 | 0.00 | 60 | 1021.6 |
| 20260904200311 | 72 | 230 | 0.0 | 3.0 | 0.00 | 0.00 | 0.00 | 60 | 1021.5 |
| 20260904200108 | 72 | 252 | 0.0 | 5.0 | 0.00 | 0.00 | 0.00 | 60 | 1021.5 |
| 20260904195904 | 72 | 245 | 1.0 | 5.0 | 0.00 | 0.00 | 0.00 | 60 | 1021.5 |
| 20260904195658 | 72 | 236 | 1.0 | 5.0 | 0.00 | 0.00 | 0.00 | 60 | 1021.6 |
| 20260904195457 | 72 | 264 | 2.0 | 5.0 | 0.00 | 0.00 | 0.00 | 60 | 1021.5 |
| 20260904195257 | 72 | 247 | 2.0 | 5.0 | 0.00 | 0.00 | 0.00 | 60 | 1021.6 |
| 20260904195052 | 72 | 220 | 3.0 | 7.0 | 0.00 | 0.00 | 0.00 | 61 | 1021.5 |
| 20260904194847 | 72 | 226 | 3.0 | 7.0 | 0.00 | 0.00 | 0.00 | 60 | 1021.5 |
| 20260904194646 | 72 | 223 | 4.0 | 7.0 | 0.00 | 0.00 | 0.00 | 60 | 1021.4 |
| 20260904194121 | 72 | 228 | 4.0 | 7.0 | 0.00 | 0.00 | 0.00 | 60 | 1021.4 |
| 20260904193919 | 72 | 238 | 3.0 | 7.0 | 0.00 | 0.00 | 0.00 | 60 | 1021.4 |
| 20260904193710 | 72 | 236 | 2.0 | 7.0 | 0.00 | 0.00 | 0.00 | 59 | 1021.3 |
| 20260904193503 | 72 | 236 | 1.0 | 7.0 | 0.00 | 0.00 | 0.00 | 60 | 1021.4 |
| 20260904192617 | 73 | 226 | 1.0 | 5.0 | 0.00 | 0.00 | 0.00 | 59 | 1021.2 |
| 20260904192101 | 73 | 240 | 1.0 | 5.0 | 0.00 | 0.00 | 0.00 | 58 | 1021.2 |
| 20260904191529 | 73 | 236 | 1.0 | 5.0 | 0.00 | 0.00 | 0.00 | 58 | 1021.1 |
| 20260904191326 | 73 | 212 | 1.0 | 6.0 | 0.00 | 0.00 | 0.00 | 58 | 1021.1 |
| 20260904191127 | 73 | 238 | 1.0 | 6.0 | 0.00 | 0.00 | 0.00 | 57 | 1021.0 |
| 20260904190916 | 73 | 238 | 1.0 | 6.0 | 0.00 | 0.00 | 0.00 | 57 | 1021.0 |
| 20260904190350 | 73 | 281 | 3.0 | 11.0 | 0.00 | 0.00 | 0.00 | 58 | 1021.0 |
| 20260904185822 | 75 | 232 | 4.0 | 11.0 | 0.00 | 0.00 | 0.00 | 56 | 1020.8 |
| 20260904185618 | 75 | 223 | 5.0 | 11.0 | 0.00 | 0.00 | 0.00 | 56 | 1020.9 |
| 20260904185407 | 75 | 233 | 5.0 | 11.0 | 0.00 | 0.00 | 0.00 | 54 | 1021.0 |
| 20260904184832 | 74 | 253 | 4.0 | 11.0 | 0.00 | 0.00 | 0.00 | 55 | 1020.9 |
| 20260904184621 | 74 | 220 | 4.0 | 11.0 | 0.00 | 0.00 | 0.00 | 57 | 1020.8 |
| 20260904184413 | 74 | 252 | 4.0 | 9.0 | 0.00 | 0.00 | 0.00 | 58 | 1020.8 |
| 20260904184207 | 74 | 248 | 3.0 | 7.0 | 0.00 | 0.00 | 0.00 | 59 | 1020.7 |
| 20260904184005 | 73 | 236 | 2.0 | 7.0 | 0.00 | 0.00 | 0.00 | 59 | 1020.8 |
| 20260904183756 | 74 | 207 | 2.0 | 7.0 | 0.00 | 0.00 | 0.00 | 59 | 1020.7 |
| 20260904182913 | 74 | 254 | 2.0 | 6.0 | 0.00 | 0.00 | 0.00 | 61 | 1020.6 |
| 20260904182703 | 74 | 232 | 2.0 | 6.0 | 0.00 | 0.00 | 0.00 | 60 | 1020.7 |
| 20260904182459 | 74 | 227 | 2.0 | 6.0 | 0.00 | 0.00 | 0.00 | 60 | 1020.7 |
| 20260904182249 | 74 | 240 | 2.0 | 6.0 | 0.00 | 0.00 | 0.00 | 59 | 1020.6 |
| 20260904182044 | 75 | 253 | 2.0 | 6.0 | 0.00 | 0.00 | 0.00 | 59 | 1020.7 |
| 20260904181840 | 75 | 250 | 2.0 | 6.0 | 0.00 | 0.00 | 0.00 | 58 | 1020.6 |
| 20260904181639 | 75 | 238 | 2.0 | 6.0 | 0.00 | 0.00 | 0.00 | 58 | 1020.6 |
| 20260904181435 | 75 | 222 | 2.0 | 5.0 | 0.00 | 0.00 | 0.00 | 57 | 1020.6 |
| 20260904180900 | 75 | 208 | 1.0 | 7.0 | 0.00 | 0.00 | 0.00 | 57 | 1020.6 |
| 20260904180656 | 75 | 228 | 2.0 | 7.0 | 0.00 | 0.00 | 0.00 | 57 | 1020.6 |
| 20260904180446 | 76 | 206 | 2.0 | 7.0 | 0.00 | 0.00 | 0.00 | 57 | 1020.5 |
| 20260904180241 | 76 | 202 | 3.0 | 7.0 | 0.00 | 0.00 | 0.00 | 57 | 1020.5 |
| 20260904180031 | 76 | 229 | 3.0 | 7.0 | 0.00 | 0.00 | 0.00 | 56 | 1020.4 |
| 20260904175825 | 76 | 248 | 3.0 | 8.0 | 0.00 | 0.00 | 0.00 | 55 | 1020.5 |
| 20260904175620 | 76 | 234 | 3.0 | 8.0 | 0.00 | 0.00 | 0.00 | 55 | 1020.4 |
| 20260904175411 | 77 | 221 | 3.0 | 8.0 | 0.00 | 0.00 | 0.00 | 55 | 1020.3 |
| 20260904174847 | 77 | 232 | 3.0 | 12.0 | 0.00 | 0.00 | 0.00 | 53 | 1020.4 |
| 20260904174644 | 77 | 236 | 3.0 | 12.0 | 0.00 | 0.00 | 0.00 | 54 | 1020.4 |
| 20260904174435 | 78 | 220 | 3.0 | 12.0 | 0.00 | 0.00 | 0.00 | 53 | 1020.4 |
| 20260904174227 | 78 | 236 | 3.0 | 12.0 | 0.00 | 0.00 | 0.00 | 53 | 1020.4 |
| 20260904174023 | 78 | 255 | 3.0 | 12.0 | 0.00 | 0.00 | 0.00 | 52 | 1020.4 |
| 20260904173822 | 78 | 231 | 4.0 | 12.0 | 0.00 | 0.00 | 0.00 | 52 | 1020.4 |
| 20260904173623 | 78 | 224 | 4.0 | 12.0 | 0.00 | 0.00 | 0.00 | 52 | 1020.4 |
| 20260904173419 | 78 | 243 | 4.0 | 12.0 | 0.00 | 0.00 | 0.00 | 52 | 1020.4 |
| 20260904173218 | 78 | 221 | 4.0 | 12.0 | 0.00 | 0.00 | 0.00 | 52 | 1020.4 |